Appleton, WI

8:40 PM CDT on October 14, 2019 (GMT -0500)
Outagamie County Regional

Weather History for KATW - August, 2019

Change the Weather History Date:

Friday, August 9, 2019

  Actual Average Record
Temperature  
Mean Temperature 64 °F -  
Max Temperature 75 °F 79 °F 95 °F (2001)
Min Temperature 53 °F 60 °F 46 °F (1972)
Degree Days  
Heating Degree Days 1    
Growing Degree Days 14 (Base 50)    
Moisture  
Dew Point 48 °F    
Average Humidity 62    
Maximum Humidity 94    
Minimum Humidity 31    
Precipitation  
Precipitation 0.00 in - - ()
Sea Level Pressure  
Sea Level Pressure 29.93 in    
Wind  
Wind Speed 9 mph (WNW)    
Max Wind Speed 15 mph    
Max Gust Speed 20 mph    
Visibility 10 miles    
Events      
Averages and records for this station are not official NWS values.
T = Trace of Precipitation, MM = Missing Value Source: NWS Daily Summary

Daily Weather History Graph

Daily Weather History Graph

Search for Another Location

Airport or City:

Astronomy

Aug. 09, 2019 Rise Set
Actual Time 5:50 AM CDT 8:08 PM CDT
Civil Twilight 5:18 AM CDT 8:40 PM CDT
Nautical Twilight 4:38 AM CDT 9:19 PM CDT
Astronomical Twilight 3:53 AM CDT 10:04 PM CDT
Moon 3:51 PM CDT (8/9) 12:46 AM CDT (8/9)
Length of Visible Light 15h 22m
Length of Day
14h 17m
Waxing Gibbous, 70% of the Moon is Illuminated
Aug 9
Waxing Gibbous
Aug 15
Full
Aug 23
Last Quarter
Aug 30
New
Sep 5
First Quarter

Hourly Weather History & Observations

Time (CDT) Temp. Dew Point Humidity Pressure Visibility Wind Dir Wind Speed Gust Speed Precip Events Conditions
12:35 AM 57.2 °F 46.4 °F 67% 29.89 in 10.0 mi West 8.1 mph - N/A   Clear
12:55 AM 57.2 °F 46.4 °F 67% 29.89 in 10.0 mi West 8.1 mph - N/A   Clear
1:35 AM 55.4 °F 44.6 °F 67% 29.89 in 10.0 mi West 8.1 mph - N/A   Clear
1:55 AM 55.4 °F 46.4 °F 72% 29.89 in 10.0 mi West 9.2 mph - N/A   Clear
2:15 AM 55.4 °F 46.4 °F 72% 29.89 in 10.0 mi West 8.1 mph - N/A   Clear
2:35 AM 55.4 °F 46.4 °F 72% 29.89 in 10.0 mi WNW 9.2 mph - N/A   Clear
2:55 AM 53.6 °F 46.4 °F 77% 29.89 in 10.0 mi WNW 8.1 mph - N/A   Clear
3:15 AM 53.6 °F 46.4 °F 77% 29.89 in 10.0 mi WNW 8.1 mph - N/A   Clear
3:35 AM 55.4 °F 46.4 °F 72% 29.89 in 10.0 mi WNW 8.1 mph - N/A   Clear
3:55 AM 53.6 °F 46.4 °F 77% 29.89 in 10.0 mi West 9.2 mph - N/A   Clear
4:15 AM 53.6 °F 44.6 °F 72% 29.90 in 10.0 mi West 8.1 mph - N/A   Clear
4:35 AM 53.6 °F 46.4 °F 77% 29.90 in 10.0 mi West 9.2 mph - N/A   Clear
4:55 AM 53.6 °F 46.4 °F 77% 29.90 in 10.0 mi West 10.4 mph - N/A   Clear
5:15 AM 53.6 °F 46.4 °F 77% 29.91 in 10.0 mi West 10.4 mph - N/A   Clear
5:20 AM 53.6 °F 48.2 °F 82% 29.91 in 10.0 mi West 10.4 mph - N/A   Clear
5:45 AM 53.6 °F 51.8 °F 94% 29.92 in 10.0 mi West 9.2 mph - N/A   Clear
7:45 AM 59.0 °F 51.8 °F 77% 29.96 in 10.0 mi West 10.4 mph - N/A   Clear
8:45 AM 62.6 °F 51.8 °F 68% 29.96 in 10.0 mi WNW 9.2 mph - N/A   Clear
9:45 AM 66.2 °F 51.8 °F 60% 29.96 in 10.0 mi WNW 5.8 mph - N/A   Scattered Clouds
10:45 AM 71.6 °F 50.0 °F 46% 29.96 in 10.0 mi WNW 4.6 mph - N/A   Scattered Clouds
11:45 AM 73.4 °F 46.4 °F 38% 29.96 in 10.0 mi WNW 13.8 mph - N/A   Mostly Cloudy
12:45 PM 73.4 °F 44.6 °F 36% 29.95 in 10.0 mi West 12.7 mph 19.6 mph N/A   Mostly Cloudy
1:45 PM 75.2 °F 44.6 °F 34% 29.94 in 10.0 mi West 11.5 mph - N/A   Mostly Cloudy
2:45 PM 75.2 °F 44.6 °F 34% 29.94 in 10.0 mi WNW 15.0 mph 18.4 mph N/A   Mostly Cloudy
3:45 PM 75.2 °F 44.6 °F 34% 29.93 in 10.0 mi WNW 10.4 mph - N/A   Mostly Cloudy
4:45 PM 75.2 °F 42.8 °F 31% 29.93 in 10.0 mi WNW 12.7 mph - N/A   Mostly Cloudy
6:45 PM 73.4 °F 46.4 °F 38% 29.94 in 10.0 mi WNW 5.8 mph - N/A   Scattered Clouds
7:45 PM 69.8 °F 50.0 °F 49% 29.94 in 10.0 mi WNW 4.6 mph - N/A   Scattered Clouds
8:45 PM 66.2 °F 50.0 °F 56% 29.96 in 10.0 mi West 4.6 mph - N/A   Scattered Clouds
9:45 PM 64.4 °F 51.8 °F 64% 29.97 in 10.0 mi West 4.6 mph - N/A   Scattered Clouds
10:45 PM 64.4 °F 51.8 °F 64% 29.96 in 10.0 mi West 6.9 mph - N/A   Scattered Clouds
10:55 PM 62.6 °F 50.0 °F 63% 29.96 in 10.0 mi West 6.9 mph - N/A   Clear
11:15 PM 62.6 °F 50.0 °F 63% 29.96 in 10.0 mi West 8.1 mph - N/A   Clear
11:35 PM 62.6 °F 50.0 °F 63% 29.96 in 10.0 mi WNW 9.2 mph - N/A   Clear
11:55 PM 60.8 °F 50.0 °F 68% 29.96 in 10.0 mi WNW 6.9 mph - N/A   Clear